UAL2660 KSAV-KDEN

Flight info

Callsign UAL2660
Flight time 3h 18m
Altitude 32000
Route SMALZ IRQ HITMN BUM/N0453F340 HYS J24 OATHE CLASH5
Aircraft B738/M-SDE2E3FGHIRWXY/LB1

Departure

Time 2026-04-25 20:34
Airport Savannah Hilton Head International Airport (KSAV)

Arrival

Time 2026-04-25 23:52
Airport Denver International Airport (KDEN)
Time Latitude Longitude Altitude Speed Heading
2026-04-25 19:29 32.13508 -81.20784 51 ft 0 kts
2026-04-25 20:19 32.13507 -81.20784 53 ft 2 kts
2026-04-25 20:20 32.13482 -81.20787 49 ft 4 kts
2026-04-25 20:20 32.13458 -81.20786 51 ft 4 kts 322°
2026-04-25 20:20 32.13448 -81.20762 53 ft 4 kts 270°
2026-04-25 20:20 32.13449 -81.20745 49 ft 1 kts 270°
2026-04-25 20:23 32.13449 -81.20749 53 ft 3 kts 270°
2026-04-25 20:23 32.13445 -81.20793 53 ft 7 kts 245°
2026-04-25 20:23 32.13401 -81.20815 53 ft 7 kts 182°
2026-04-25 20:24 32.13344 -81.20815 52 ft 11 kts 180°
2026-04-25 20:24 32.13254 -81.20817 52 ft 14 kts 180°
2026-04-25 20:24 32.13160 -81.20818 52 ft 13 kts 180°
2026-04-25 20:24 32.13078 -81.20818 52 ft 10 kts 173°
2026-04-25 20:25 32.13039 -81.20765 51 ft 9 kts 97°
2026-04-25 20:25 32.13038 -81.20674 51 ft 13 kts 90°
2026-04-25 20:25 32.13037 -81.20554 51 ft 16 kts 90°
2026-04-25 20:25 32.13035 -81.20427 48 ft 15 kts 91°
2026-04-25 20:26 32.13032 -81.20304 51 ft 15 kts 92°
2026-04-25 20:26 32.13026 -81.20187 50 ft 14 kts 94°
2026-04-25 20:26 32.13024 -81.20069 46 ft 16 kts 90°
2026-04-25 20:26 32.13023 -81.19933 47 ft 16 kts 90°
2026-04-25 20:27 32.13017 -81.19802 50 ft 16 kts 101°
2026-04-25 20:27 32.13003 -81.19731 48 ft 7 kts 105°
2026-04-25 20:27 32.12998 -81.19711 50 ft 0 kts 105°
2026-04-25 20:28 32.12996 -81.19701 50 ft 6 kts 105°
2026-04-25 20:28 32.12977 -81.19623 47 ft 14 kts 106°
2026-04-25 20:28 32.12964 -81.19487 49 ft 19 kts 90°
2026-04-25 20:28 32.12963 -81.19327 49 ft 20 kts 90°
2026-04-25 20:29 32.12961 -81.19168 48 ft 19 kts 90°
2026-04-25 20:29 32.12960 -81.19014 48 ft 18 kts 90°
2026-04-25 20:29 32.12953 -81.18900 47 ft 9 kts 116°
2026-04-25 20:29 32.12899 -81.18874 41 ft 12 kts 178°
2026-04-25 20:30 32.12851 -81.18910 37 ft 8 kts 254°
2026-04-25 20:30 32.12850 -81.18939 37 ft 0 kts 270°
2026-04-25 20:32 32.12850 -81.18958 38 ft 12 kts 270°
2026-04-25 20:33 32.12853 -81.19346 42 ft 82 kts 270°
2026-04-25 20:33 32.12860 -81.20276 42 ft 143 kts 271°
2026-04-25 20:33 32.12823 -81.21138 109 ft 164 kts 261°
2026-04-25 20:33 32.12774 -81.22054 422 ft 174 kts 264°
2026-04-25 20:34 32.12766 -81.23936 1167 ft 172 kts 269°
2026-04-25 20:34 32.12832 -81.25410 1718 ft 183 kts 270°
2026-04-25 20:34 32.12904 -81.26913 2426 ft 188 kts 270°
2026-04-25 20:34 32.13108 -81.28503 2936 ft 208 kts 290°
2026-04-25 20:35 32.14098 -81.29862 3124 ft 236 kts 327°
2026-04-25 20:35 32.15608 -81.30738 3555 ft 250 kts 333°
2026-04-25 20:35 32.17264 -81.31667 3831 ft 274 kts 331°
2026-04-25 20:35 32.18966 -81.32710 4666 ft 274 kts 329°
2026-04-25 20:36 32.20639 -81.33782 5602 ft 274 kts 328°
2026-04-25 20:36 32.22316 -81.34903 6365 ft 280 kts 327°
2026-04-25 20:36 32.24012 -81.36066 7097 ft 283 kts 327°
2026-04-25 20:36 32.25707 -81.37246 7897 ft 284 kts 327°
2026-04-25 20:37 32.27415 -81.38444 8669 ft 287 kts 326°
2026-04-25 20:37 32.29113 -81.39642 9420 ft 289 kts 326°
2026-04-25 20:37 32.30846 -81.40869 10161 ft 292 kts 326°
2026-04-25 20:37 32.32635 -81.42141 10499 ft 311 kts 326°
2026-04-25 20:38 32.34556 -81.43510 10669 ft 333 kts 326°
2026-04-25 20:38 32.36609 -81.44972 10851 ft 354 kts 326°
2026-04-25 20:38 32.38760 -81.46502 11226 ft 366 kts 327°
2026-04-25 20:38 32.40957 -81.48063 11842 ft 370 kts 327°
2026-04-25 20:39 32.43162 -81.49632 12539 ft 371 kts 327°
2026-04-25 20:39 32.45381 -81.51214 13246 ft 373 kts 327°
2026-04-25 20:39 32.47617 -81.52793 13896 ft 376 kts 329°
2026-04-25 20:39 32.49169 -81.53726 14272 ft 379 kts 333°
2026-04-25 20:40 32.52389 -81.55388 15028 ft 383 kts 335°
2026-04-25 20:40 32.54864 -81.56607 15603 ft 386 kts 335°
2026-04-25 20:40 32.57354 -81.57831 16162 ft 389 kts 335°
2026-04-25 20:40 32.59865 -81.59074 16689 ft 393 kts 334°
2026-04-25 20:41 32.62388 -81.60337 17269 ft 394 kts 334°
2026-04-25 20:41 32.64918 -81.61611 17882 ft 395 kts 334°
2026-04-25 20:41 32.67453 -81.62896 18380 ft 398 kts 334°
2026-04-25 20:41 32.70012 -81.64197 18786 ft 402 kts 334°
2026-04-25 20:42 32.72598 -81.65516 19184 ft 406 kts 334°
2026-04-25 20:42 32.75203 -81.66847 19565 ft 410 kts 334°
2026-04-25 20:42 32.77830 -81.68190 19967 ft 413 kts 334°
2026-04-25 20:42 32.80489 -81.69549 20376 ft 416 kts 333°
2026-04-25 20:43 32.83162 -81.70917 20783 ft 420 kts 333°
2026-04-25 20:43 32.85765 -81.72490 21137 ft 420 kts 322°
2026-04-25 20:43 32.87885 -81.74839 21502 ft 416 kts 305°
2026-04-25 20:43 32.89421 -81.77735 21943 ft 414 kts 293°
2026-04-25 20:44 32.90631 -81.80797 22365 ft 415 kts 292°
2026-04-25 20:44 32.91865 -81.83919 22737 ft 418 kts 292°
2026-04-25 20:44 32.93112 -81.87058 23114 ft 421 kts 292°
2026-04-25 20:44 32.94372 -81.90210 23481 ft 423 kts 292°
2026-04-25 20:45 32.95645 -81.93376 23799 ft 425 kts 292°
2026-04-25 20:45 32.96927 -81.96554 24130 ft 426 kts 292°
2026-04-25 20:45 32.98216 -81.99743 24454 ft 428 kts 292°
2026-04-25 20:45 32.99513 -82.02950 24763 ft 430 kts 292°
2026-04-25 20:46 33.00812 -82.06163 25070 ft 432 kts 292°
2026-04-25 20:46 33.02121 -82.09403 25388 ft 433 kts 292°
2026-04-25 20:46 33.03429 -82.12643 25702 ft 435 kts 292°
2026-04-25 20:46 33.04741 -82.15898 25996 ft 437 kts 292°
2026-04-25 20:47 33.06058 -82.19167 26295 ft 438 kts 292°
2026-04-25 20:47 33.07380 -82.22453 26563 ft 440 kts 292°
2026-04-25 20:47 33.08705 -82.25749 26839 ft 442 kts 292°
2026-04-25 20:47 33.10038 -82.29067 27113 ft 444 kts 292°
2026-04-25 20:48 33.11371 -82.32390 27387 ft 445 kts 292°
2026-04-25 20:48 33.12711 -82.35732 27652 ft 447 kts 292°
2026-04-25 20:48 33.14052 -82.39081 27977 ft 447 kts 292°
2026-04-25 20:48 33.15372 -82.42378 28399 ft 445 kts 293°
2026-04-25 20:49 33.16702 -82.45705 28826 ft 443 kts 292°
2026-04-25 20:49 33.18026 -82.49021 29188 ft 443 kts 292°
2026-04-25 20:49 33.19351 -82.52343 29544 ft 443 kts 292°
2026-04-25 20:49 33.20671 -82.55655 29940 ft 442 kts 292°
2026-04-25 20:50 33.21989 -82.58965 30306 ft 440 kts 292°
2026-04-25 20:50 33.23299 -82.62257 30675 ft 438 kts 292°
2026-04-25 20:50 33.24603 -82.65537 31030 ft 436 kts 292°
2026-04-25 20:50 33.25899 -82.68804 31370 ft 435 kts 292°
2026-04-25 20:51 33.27193 -82.72066 31711 ft 433 kts 292°
2026-04-25 20:51 33.28481 -82.75318 31895 ft 435 kts 292°
2026-04-25 20:51 33.31081 -82.81893 31883 ft 437 kts 292°
2026-04-25 20:52 33.33231 -82.87334 31883 ft 432 kts 292°
2026-04-25 20:52 33.36225 -82.94929 31968 ft 435 kts 292°
2026-04-25 20:53 33.37498 -82.98167 32203 ft 435 kts 292°
2026-04-25 20:53 33.38788 -83.01448 32473 ft 435 kts 292°
2026-04-25 20:53 33.40073 -83.04719 32798 ft 433 kts 292°
2026-04-25 20:53 33.41350 -83.07971 33216 ft 429 kts 292°
2026-04-25 20:54 33.42614 -83.11192 33686 ft 424 kts 292°
2026-04-25 20:54 33.43867 -83.14388 33892 ft 425 kts 292°
2026-04-25 20:54 33.46380 -83.20817 33894 ft 426 kts 292°
2026-04-25 20:55 33.48882 -83.27226 33902 ft 423 kts 292°
2026-04-25 20:55 33.51363 -83.33596 33914 ft 421 kts 292°
2026-04-25 20:56 33.53831 -83.39941 33902 ft 419 kts 292°
2026-04-25 20:56 33.56290 -83.46276 33900 ft 419 kts 292°
2026-04-25 20:57 33.58745 -83.52615 33899 ft 419 kts 291°
2026-04-25 20:57 33.61199 -83.58962 33901 ft 420 kts 291°
2026-04-25 20:58 33.63656 -83.65327 33896 ft 421 kts 291°
2026-04-25 20:58 33.66116 -83.71712 33890 ft 422 kts 291°
2026-04-25 20:59 33.68560 -83.78068 33891 ft 422 kts 291°
2026-04-25 20:59 33.71021 -83.84480 33888 ft 423 kts 291°
2026-04-25 21:00 33.72668 -83.88778 33893 ft 423 kts 291°
2026-04-25 21:01 33.77179 -84.00581 33919 ft 425 kts 291°
2026-04-25 21:01 33.79645 -84.07049 33908 ft 426 kts 291°
2026-04-25 21:02 33.82096 -84.13493 33921 ft 427 kts 291°
2026-04-25 21:02 33.85164 -84.19620 33908 ft 434 kts 306°
2026-04-25 21:03 33.89588 -84.24659 33894 ft 440 kts 314°
2026-04-25 21:03 33.94210 -84.29459 33901 ft 435 kts 310°
2026-04-25 21:03 33.96174 -84.32166 33906 ft 422 kts 300°
2026-04-25 21:04 33.97701 -84.35134 33912 ft 414 kts 295°
2026-04-25 21:04 34.00578 -84.41132 33872 ft 413 kts 296°
2026-04-25 21:05 34.03462 -84.47078 33906 ft 409 kts 296°
2026-04-25 21:05 34.06325 -84.52950 33913 ft 408 kts 296°
2026-04-25 21:06 34.09207 -84.58864 33926 ft 412 kts 296°
2026-04-25 21:06 34.12136 -84.64884 33912 ft 417 kts 296°
2026-04-25 21:07 34.15073 -84.70921 33900 ft 417 kts 297°
2026-04-25 21:07 34.18004 -84.76955 33888 ft 416 kts 297°
2026-04-25 21:08 34.20918 -84.82967 33885 ft 414 kts 297°
2026-04-25 21:08 34.23821 -84.88967 33895 ft 414 kts 297°
2026-04-25 21:09 34.28196 -84.98033 34466 ft 414 kts 296°
2026-04-25 21:09 34.29647 -85.01044 34683 ft 414 kts 296°
2026-04-25 21:09 34.31098 -85.04059 34845 ft 415 kts 296°
2026-04-25 21:10 34.32534 -85.07044 35005 ft 417 kts 296°
2026-04-25 21:10 34.33992 -85.10078 35159 ft 418 kts 296°
2026-04-25 21:10 34.35453 -85.13122 35378 ft 417 kts 296°
2026-04-25 21:10 34.36908 -85.16153 35604 ft 416 kts 296°
2026-04-25 21:11 34.38362 -85.19184 35810 ft 416 kts 296°
2026-04-25 21:11 34.39815 -85.22219 35854 ft 418 kts 296°
2026-04-25 21:11 34.42733 -85.28320 35855 ft 417 kts 296°
2026-04-25 21:12 34.45628 -85.34379 35859 ft 414 kts 296°
2026-04-25 21:12 34.48015 -85.39384 35857 ft 412 kts 296°
2026-04-25 21:13 34.51350 -85.46392 35862 ft 410 kts 296°
2026-04-25 21:13 34.54195 -85.52380 35864 ft 409 kts 296°
2026-04-25 21:14 34.57036 -85.58372 35859 ft 411 kts 296°
2026-04-25 21:14 34.59867 -85.64353 35862 ft 412 kts 296°
2026-04-25 21:15 34.62730 -85.70412 35860 ft 415 kts 296°
2026-04-25 21:15 34.65610 -85.76516 35856 ft 417 kts 296°
2026-04-25 21:16 34.68494 -85.82639 35861 ft 419 kts 296°
2026-04-25 21:16 34.71390 -85.88798 35845 ft 420 kts 296°
2026-04-25 21:17 34.74270 -85.94934 35843 ft 420 kts 296°
2026-04-25 21:17 34.77166 -86.01114 35852 ft 420 kts 296°
2026-04-25 21:18 34.80058 -86.07299 35843 ft 420 kts 296°
2026-04-25 21:18 34.82941 -86.13474 35859 ft 419 kts 296°
2026-04-25 21:19 34.85826 -86.19665 35865 ft 421 kts 296°
2026-04-25 21:19 34.88714 -86.25876 35854 ft 420 kts 296°
2026-04-25 21:20 34.90638 -86.30016 35853 ft 419 kts 296°
2026-04-25 21:20 34.94435 -86.38202 35899 ft 415 kts 296°
2026-04-25 21:21 34.97264 -86.44317 35888 ft 412 kts 296°
2026-04-25 21:21 35.00056 -86.50363 35888 ft 410 kts 296°
2026-04-25 21:22 35.02844 -86.56408 35892 ft 408 kts 296°
2026-04-25 21:22 35.05614 -86.62428 35887 ft 407 kts 296°
2026-04-25 21:23 35.08378 -86.68445 35895 ft 405 kts 296°
2026-04-25 21:23 35.11136 -86.74459 35872 ft 406 kts 296°
2026-04-25 21:24 35.13431 -86.79472 35880 ft 406 kts 296°
2026-04-25 21:24 35.16188 -86.85503 35851 ft 407 kts 296°
2026-04-25 21:25 35.18947 -86.91549 35867 ft 408 kts 296°
2026-04-25 21:25 35.21727 -86.97655 35878 ft 413 kts 296°
2026-04-25 21:26 35.24521 -87.03797 35859 ft 413 kts 296°
2026-04-25 21:26 35.27304 -87.09927 35846 ft 412 kts 296°
2026-04-25 21:27 35.30078 -87.16047 35846 ft 410 kts 296°
2026-04-25 21:27 35.32838 -87.22149 35849 ft 408 kts 296°
2026-04-25 21:28 35.35583 -87.28230 35853 ft 407 kts 296°
2026-04-25 21:28 35.38302 -87.34263 35864 ft 406 kts 296°
2026-04-25 21:29 35.41025 -87.40317 35854 ft 405 kts 296°
2026-04-25 21:29 35.43738 -87.46358 35865 ft 403 kts 296°
2026-04-25 21:30 35.46438 -87.52381 35866 ft 403 kts 296°
2026-04-25 21:30 35.48679 -87.57387 35886 ft 402 kts 295°
2026-04-25 21:31 35.51827 -87.64436 35874 ft 403 kts 295°
2026-04-25 21:31 35.54518 -87.70472 35874 ft 403 kts 295°
2026-04-25 21:32 35.57192 -87.76480 35878 ft 403 kts 296°
2026-04-25 21:32 35.59880 -87.82530 35871 ft 403 kts 295°
2026-04-25 21:33 35.62563 -87.88580 35875 ft 403 kts 295°
2026-04-25 21:33 35.65247 -87.94643 35874 ft 403 kts 295°
2026-04-25 21:34 35.67930 -88.00714 35874 ft 404 kts 295°
2026-04-25 21:34 35.70608 -88.06786 35874 ft 404 kts 295°
2026-04-25 21:35 35.73053 -88.12337 35882 ft 404 kts 295°
2026-04-25 21:35 35.75727 -88.18421 35876 ft 404 kts 295°
2026-04-25 21:36 35.78378 -88.24462 35877 ft 403 kts 295°
2026-04-25 21:36 35.81042 -88.30544 35880 ft 403 kts 295°
2026-04-25 21:37 35.83266 -88.35632 35878 ft 402 kts 295°
2026-04-25 21:37 35.86339 -88.42672 35880 ft 401 kts 295°
2026-04-25 21:38 35.88974 -88.48722 35886 ft 400 kts 295°
2026-04-25 21:38 35.91602 -88.54765 35880 ft 400 kts 295°
2026-04-25 21:39 35.94226 -88.60813 35880 ft 399 kts 295°
2026-04-25 21:39 35.96839 -88.66844 35879 ft 398 kts 295°
2026-04-25 21:40 35.99450 -88.72880 35877 ft 398 kts 295°
2026-04-25 21:40 36.02053 -88.78912 35877 ft 398 kts 295°
2026-04-25 21:41 36.04652 -88.84944 35876 ft 398 kts 295°
2026-04-25 21:41 36.07230 -88.90937 35875 ft 397 kts 295°
2026-04-25 21:42 36.09821 -88.96972 35872 ft 397 kts 295°
2026-04-25 21:42 36.12404 -89.03001 35870 ft 396 kts 295°
2026-04-25 21:43 36.14980 -89.09025 35880 ft 396 kts 295°
2026-04-25 21:43 36.17551 -89.15045 35882 ft 396 kts 295°
2026-04-25 21:44 36.20119 -89.21071 35883 ft 395 kts 295°
2026-04-25 21:45 36.23959 -89.30101 35885 ft 395 kts 295°
2026-04-25 21:45 36.26515 -89.36129 35886 ft 395 kts 295°
2026-04-25 21:46 36.29070 -89.42161 35887 ft 395 kts 295°
2026-04-25 21:46 36.31620 -89.48195 35876 ft 395 kts 295°
2026-04-25 21:47 36.34150 -89.54193 35869 ft 395 kts 295°
2026-04-25 21:47 36.36693 -89.60230 35864 ft 394 kts 295°
2026-04-25 21:48 36.39228 -89.66261 35870 ft 394 kts 294°
2026-04-25 21:48 36.41762 -89.72302 35875 ft 394 kts 294°
2026-04-25 21:49 36.44294 -89.78347 35868 ft 394 kts 294°
2026-04-25 21:49 36.46818 -89.84386 35881 ft 394 kts 294°
2026-04-25 21:50 36.49341 -89.90433 35873 ft 394 kts 294°
2026-04-25 21:50 36.51863 -89.96490 35879 ft 395 kts 294°
2026-04-25 21:51 36.54387 -90.02562 35889 ft 395 kts 294°
2026-04-25 21:51 36.56894 -90.08604 35888 ft 395 kts 294°
2026-04-25 21:52 36.59412 -90.14684 35884 ft 395 kts 294°
2026-04-25 21:52 36.61926 -90.20766 35894 ft 395 kts 294°
2026-04-25 21:53 36.64437 -90.26852 35896 ft 394 kts 294°
2026-04-25 21:53 36.66939 -90.32928 35896 ft 394 kts 294°
2026-04-25 21:54 36.69436 -90.39002 35899 ft 393 kts 294°
2026-04-25 21:54 36.71922 -90.45061 35895 ft 392 kts 294°
2026-04-25 21:55 36.74397 -90.51106 35898 ft 391 kts 294°
2026-04-25 21:55 36.76868 -90.57151 35904 ft 390 kts 294°
2026-04-25 21:56 36.79329 -90.63185 35895 ft 390 kts 294°
2026-04-25 21:56 36.81770 -90.69180 35896 ft 390 kts 294°
2026-04-25 21:57 36.84225 -90.75220 35892 ft 390 kts 294°
2026-04-25 21:57 36.86675 -90.81262 35904 ft 390 kts 294°
2026-04-25 21:58 36.89120 -90.87301 35891 ft 390 kts 294°
2026-04-25 21:58 36.91561 -90.93341 35885 ft 389 kts 294°
2026-04-25 21:59 36.93997 -90.99378 35899 ft 389 kts 294°
2026-04-25 21:59 36.96428 -91.05419 35896 ft 388 kts 294°
2026-04-25 22:00 37.00070 -91.14487 35910 ft 389 kts 294°
2026-04-25 22:00 37.02479 -91.20500 35907 ft 389 kts 294°
2026-04-25 22:01 37.04905 -91.26567 35904 ft 390 kts 294°
2026-04-25 22:01 37.06925 -91.31625 35901 ft 390 kts 294°
2026-04-25 22:02 37.09760 -91.38742 35903 ft 391 kts 294°
2026-04-25 22:02 37.12188 -91.44847 35901 ft 391 kts 294°
2026-04-25 22:03 37.14615 -91.50964 35901 ft 392 kts 294°
2026-04-25 22:03 37.17037 -91.57079 35902 ft 391 kts 294°
2026-04-25 22:04 37.19454 -91.63193 35895 ft 391 kts 294°
2026-04-25 22:04 37.21851 -91.69267 35899 ft 390 kts 294°
2026-04-25 22:05 37.24253 -91.75368 35908 ft 390 kts 294°
2026-04-25 22:05 37.26655 -91.81481 35895 ft 391 kts 294°
2026-04-25 22:06 37.29058 -91.87606 35894 ft 391 kts 294°
2026-04-25 22:06 37.31459 -91.93739 35890 ft 391 kts 293°
2026-04-25 22:07 37.33452 -91.98838 35878 ft 391 kts 293°
2026-04-25 22:07 37.36250 -92.06013 35879 ft 391 kts 293°
2026-04-25 22:08 37.38640 -92.12153 35877 ft 391 kts 293°
2026-04-25 22:08 37.41011 -92.18258 35874 ft 391 kts 293°
2026-04-25 22:09 37.43394 -92.24405 35871 ft 391 kts 293°
2026-04-25 22:09 37.45774 -92.30555 35897 ft 391 kts 293°
2026-04-25 22:10 37.48154 -92.36719 35894 ft 392 kts 293°
2026-04-25 22:10 37.50536 -92.42901 35896 ft 393 kts 293°
2026-04-25 22:11 37.52919 -92.49097 35903 ft 393 kts 293°
2026-04-25 22:11 37.54901 -92.54260 35903 ft 394 kts 293°
2026-04-25 22:12 37.57286 -92.60483 35920 ft 394 kts 293°
2026-04-25 22:12 37.59267 -92.65664 35914 ft 395 kts 293°
2026-04-25 22:13 37.62052 -92.72958 35916 ft 395 kts 293°
2026-04-25 22:13 37.64432 -92.79207 35920 ft 395 kts 293°
2026-04-25 22:14 37.66795 -92.85423 35864 ft 395 kts 293°
2026-04-25 22:14 37.69171 -92.91687 35873 ft 396 kts 293°
2026-04-25 22:15 37.71549 -92.97969 35872 ft 397 kts 293°
2026-04-25 22:16 37.75112 -93.07406 35859 ft 397 kts 293°
2026-04-25 22:16 37.77491 -93.13720 35860 ft 397 kts 293°
2026-04-25 22:17 37.79865 -93.20036 35865 ft 398 kts 293°
2026-04-25 22:17 37.82239 -93.26365 35861 ft 398 kts 293°
2026-04-25 22:18 37.84591 -93.32650 35858 ft 398 kts 293°
2026-04-25 22:18 37.86955 -93.38980 35859 ft 398 kts 293°
2026-04-25 22:19 37.89318 -93.45317 35859 ft 397 kts 293°
2026-04-25 22:19 37.91673 -93.51650 35863 ft 398 kts 293°
2026-04-25 22:20 37.94030 -93.57998 35856 ft 398 kts 293°
2026-04-25 22:20 37.96384 -93.64354 35852 ft 399 kts 293°
2026-04-25 22:21 37.98736 -93.70717 35859 ft 399 kts 293°
2026-04-25 22:21 38.01086 -93.77087 35857 ft 399 kts 293°
2026-04-25 22:22 38.03437 -93.83473 35852 ft 399 kts 292°
2026-04-25 22:22 38.05781 -93.89854 35856 ft 399 kts 292°
2026-04-25 22:23 38.08122 -93.96240 35856 ft 399 kts 292°
2026-04-25 22:23 38.10457 -94.02623 35858 ft 398 kts 292°
2026-04-25 22:24 38.12772 -94.08964 35867 ft 398 kts 292°
2026-04-25 22:24 38.15102 -94.15362 35855 ft 399 kts 292°
2026-04-25 22:25 38.17426 -94.21758 35863 ft 399 kts 292°
2026-04-25 22:25 38.19734 -94.28122 35852 ft 399 kts 292°
2026-04-25 22:26 38.22054 -94.34531 35856 ft 400 kts 292°
2026-04-25 22:26 38.24375 -94.40959 35855 ft 400 kts 292°
2026-04-25 22:27 38.26669 -94.47398 35849 ft 399 kts 289°
2026-04-25 22:27 38.28022 -94.54183 35860 ft 396 kts 279°
2026-04-25 22:28 38.28962 -94.61084 35859 ft 395 kts 278°
2026-04-25 22:28 38.29910 -94.67973 35852 ft 395 kts 279°
2026-04-25 22:29 38.30867 -94.74869 35855 ft 395 kts 279°
2026-04-25 22:29 38.31815 -94.81703 35855 ft 394 kts 279°
2026-04-25 22:30 38.33240 -94.92015 35854 ft 393 kts 278°
2026-04-25 22:30 38.34025 -94.97718 35865 ft 393 kts 278°
2026-04-25 22:31 38.35121 -95.05733 35855 ft 392 kts 278°
2026-04-25 22:31 38.36053 -95.12573 35856 ft 392 kts 278°
2026-04-25 22:32 38.36981 -95.19418 35854 ft 391 kts 278°
2026-04-25 22:32 38.37897 -95.26203 35857 ft 391 kts 278°
2026-04-25 22:33 38.38812 -95.33017 35858 ft 390 kts 278°
2026-04-25 22:33 38.39725 -95.39841 35853 ft 390 kts 278°
2026-04-25 22:34 38.40633 -95.46659 35859 ft 390 kts 278°
2026-04-25 22:34 38.41535 -95.53469 35852 ft 390 kts 278°
2026-04-25 22:35 38.42434 -95.60283 35853 ft 390 kts 278°
2026-04-25 22:35 38.43330 -95.67108 35863 ft 390 kts 277°
2026-04-25 22:36 38.44217 -95.73896 35848 ft 391 kts 277°
2026-04-25 22:36 38.45106 -95.80736 35860 ft 391 kts 277°
2026-04-25 22:37 38.45993 -95.87586 35855 ft 392 kts 277°
2026-04-25 22:37 38.46877 -95.94449 35845 ft 393 kts 277°
2026-04-25 22:38 38.47760 -96.01332 35844 ft 393 kts 277°
2026-04-25 22:38 38.48641 -96.08236 35841 ft 394 kts 277°
2026-04-25 22:39 38.49518 -96.15142 35853 ft 394 kts 277°
2026-04-25 22:39 38.50387 -96.22026 35848 ft 396 kts 278°
2026-04-25 22:40 38.51262 -96.28983 35845 ft 397 kts 278°
2026-04-25 22:40 38.52135 -96.35955 35836 ft 398 kts 277°
2026-04-25 22:41 38.53006 -96.42952 35842 ft 399 kts 277°
2026-04-25 22:41 38.53869 -96.49918 35841 ft 399 kts 278°
2026-04-25 22:42 38.54732 -96.56924 35829 ft 399 kts 278°
2026-04-25 22:42 38.55592 -96.63931 35828 ft 399 kts 278°
2026-04-25 22:43 38.56447 -96.70936 35822 ft 399 kts 278°
2026-04-25 22:43 38.57296 -96.77932 35819 ft 398 kts 277°
2026-04-25 22:44 38.58139 -96.84911 35825 ft 397 kts 278°
2026-04-25 22:44 38.58975 -96.91872 35817 ft 395 kts 278°
2026-04-25 22:45 38.59803 -96.98803 35818 ft 394 kts 278°
2026-04-25 22:45 38.60621 -97.05678 35819 ft 393 kts 278°
2026-04-25 22:46 38.61437 -97.12576 35814 ft 392 kts 278°
2026-04-25 22:46 38.62247 -97.19459 35819 ft 391 kts 277°
2026-04-25 22:47 38.63052 -97.26342 35809 ft 391 kts 277°
2026-04-25 22:47 38.63854 -97.33228 35805 ft 392 kts 277°
2026-04-25 22:48 38.64654 -97.40129 35813 ft 392 kts 277°
2026-04-25 22:48 38.65451 -97.47044 35829 ft 393 kts 277°
2026-04-25 22:49 38.66245 -97.53973 35814 ft 394 kts 277°
2026-04-25 22:49 38.67036 -97.60913 35743 ft 394 kts 277°
2026-04-25 22:50 38.67823 -97.67855 35766 ft 394 kts 277°
2026-04-25 22:50 38.68600 -97.74743 35778 ft 394 kts 277°
2026-04-25 22:51 38.69379 -97.81690 35777 ft 393 kts 277°
2026-04-25 22:51 38.70152 -97.88620 35777 ft 393 kts 277°
2026-04-25 22:52 38.70921 -97.95548 35787 ft 393 kts 277°
2026-04-25 22:52 38.71555 -98.01296 35783 ft 392 kts 278°
2026-04-25 22:53 38.72441 -98.09372 35775 ft 391 kts 278°
2026-04-25 22:53 38.73195 -98.16284 35783 ft 391 kts 278°
2026-04-25 22:54 38.73944 -98.23184 35787 ft 391 kts 278°
2026-04-25 22:54 38.74683 -98.30037 35785 ft 391 kts 278°
2026-04-25 22:55 38.75422 -98.36927 35795 ft 390 kts 278°
2026-04-25 22:55 38.76155 -98.43803 35775 ft 389 kts 278°
2026-04-25 22:56 38.76881 -98.50645 35796 ft 386 kts 278°
2026-04-25 22:56 38.77598 -98.57451 35812 ft 384 kts 278°
2026-04-25 22:57 38.78308 -98.64218 35828 ft 382 kts 278°
2026-04-25 22:57 38.79012 -98.70970 35834 ft 382 kts 278°
2026-04-25 22:58 38.79710 -98.77702 35860 ft 380 kts 278°
2026-04-25 22:58 38.80402 -98.84419 35847 ft 379 kts 278°
2026-04-25 22:59 38.81088 -98.91113 35842 ft 377 kts 278°
2026-04-25 22:59 38.81762 -98.97729 35833 ft 376 kts 278°
2026-04-25 23:00 38.82436 -99.04382 35827 ft 376 kts 278°
2026-04-25 23:00 38.83105 -99.11024 35844 ft 376 kts 277°
2026-04-25 23:01 38.83771 -99.17669 35836 ft 376 kts 277°
2026-04-25 23:01 38.84434 -99.24323 35858 ft 376 kts 277°
2026-04-25 23:02 38.84881 -99.31016 35867 ft 377 kts 272°
2026-04-25 23:02 38.84933 -99.36612 35862 ft 378 kts 271°
2026-04-25 23:03 38.84966 -99.43362 35839 ft 379 kts 271°
2026-04-25 23:03 38.85013 -99.50122 35840 ft 379 kts 271°
2026-04-25 23:04 38.85070 -99.56893 35844 ft 380 kts 271°
2026-04-25 23:04 38.85128 -99.63690 35842 ft 380 kts 271°
2026-04-25 23:05 38.85184 -99.70484 35842 ft 381 kts 271°
2026-04-25 23:05 38.85237 -99.77282 35852 ft 381 kts 271°
2026-04-25 23:06 38.85285 -99.84024 35841 ft 381 kts 271°
2026-04-25 23:06 38.85330 -99.90813 35849 ft 380 kts 271°
2026-04-25 23:07 38.85371 -99.97592 35847 ft 380 kts 271°
2026-04-25 23:07 38.85407 -100.04374 35857 ft 379 kts 271°
2026-04-25 23:08 38.85440 -100.11142 35850 ft 379 kts 271°
2026-04-25 23:08 38.85469 -100.17893 35859 ft 378 kts 271°
2026-04-25 23:09 38.85494 -100.24632 35858 ft 378 kts 271°
2026-04-25 23:09 38.85515 -100.31339 35886 ft 378 kts 271°
2026-04-25 23:10 38.85532 -100.38069 35883 ft 378 kts 270°
2026-04-25 23:10 38.85545 -100.44819 35893 ft 378 kts 270°
2026-04-25 23:11 38.85554 -100.51562 35888 ft 378 kts 270°
2026-04-25 23:11 38.85560 -100.58310 35890 ft 378 kts 270°
2026-04-25 23:12 38.85562 -100.65070 35900 ft 379 kts 270°
2026-04-25 23:12 38.85559 -100.71838 35897 ft 379 kts 270°
2026-04-25 23:13 38.85554 -100.77406 35919 ft 379 kts 270°
2026-04-25 23:13 38.85545 -100.84182 35906 ft 380 kts 270°
2026-04-25 23:14 38.85532 -100.90919 35896 ft 380 kts 270°
2026-04-25 23:14 38.85515 -100.97702 35895 ft 380 kts 270°
2026-04-25 23:15 38.85493 -101.04487 35894 ft 380 kts 270°
2026-04-25 23:15 38.85468 -101.11262 35893 ft 380 kts 270°
2026-04-25 23:16 38.85439 -101.18032 35886 ft 380 kts 270°
2026-04-25 23:16 38.85407 -101.24801 35898 ft 379 kts 270°
2026-04-25 23:17 38.85370 -101.31565 35894 ft 379 kts 270°
2026-04-25 23:17 38.85329 -101.38328 35893 ft 379 kts 270°
2026-04-25 23:18 38.85285 -101.45088 35893 ft 379 kts 270°
2026-04-25 23:18 38.85245 -101.50733 35888 ft 378 kts 270°
2026-04-25 23:19 38.85193 -101.57480 35888 ft 378 kts 270°
2026-04-25 23:19 38.85138 -101.64237 35882 ft 378 kts 270°
2026-04-25 23:20 38.85080 -101.70935 35884 ft 378 kts 269°
2026-04-25 23:20 38.85017 -101.77685 35879 ft 378 kts 269°
2026-04-25 23:21 38.84948 -101.84428 35880 ft 378 kts 269°
2026-04-25 23:21 38.84873 -101.91163 35872 ft 378 kts 269°
2026-04-25 23:22 38.84796 -101.97900 35871 ft 377 kts 269°
2026-04-25 23:23 38.84672 -102.07998 35864 ft 377 kts 269°
2026-04-25 23:23 38.84586 -102.14691 35866 ft 377 kts 269°
2026-04-25 23:24 38.84496 -102.21425 35858 ft 378 kts 269°
2026-04-25 23:24 38.84867 -102.28127 35862 ft 380 kts 283°
2026-04-25 23:25 38.86344 -102.34638 35869 ft 380 kts 283°
2026-04-25 23:25 38.87801 -102.41166 35851 ft 380 kts 283°
2026-04-25 23:26 38.89234 -102.47702 35854 ft 381 kts 283°
2026-04-25 23:26 38.89952 -102.51001 35518 ft 383 kts 283°
2026-04-25 23:26 38.90662 -102.54271 35172 ft 378 kts 282°
2026-04-25 23:26 38.91365 -102.57509 34773 ft 374 kts 282°
2026-04-25 23:27 38.92058 -102.60715 34363 ft 371 kts 282°
2026-04-25 23:27 38.92735 -102.63847 33961 ft 367 kts 282°
2026-04-25 23:27 38.93415 -102.67000 33510 ft 364 kts 282°
2026-04-25 23:27 38.94087 -102.70121 33070 ft 361 kts 282°
2026-04-25 23:28 38.94753 -102.73218 32670 ft 357 kts 282°
2026-04-25 23:28 38.95410 -102.76277 32270 ft 354 kts 282°
2026-04-25 23:28 38.96060 -102.79307 31879 ft 350 kts 282°
2026-04-25 23:28 38.96704 -102.82314 31499 ft 347 kts 282°
2026-04-25 23:29 38.97353 -102.85353 31138 ft 361 kts 282°
2026-04-25 23:29 38.98029 -102.88536 30752 ft 377 kts 282°
2026-04-25 23:29 38.98728 -102.91804 30315 ft 379 kts 282°
2026-04-25 23:29 38.99428 -102.95063 29896 ft 378 kts 282°
2026-04-25 23:30 39.00125 -102.98313 29418 ft 376 kts 282°
2026-04-25 23:30 39.00818 -103.01549 28985 ft 374 kts 282°
2026-04-25 23:30 39.01503 -103.04759 28555 ft 372 kts 282°
2026-04-25 23:30 39.02184 -103.07958 28125 ft 370 kts 282°
2026-04-25 23:31 39.02861 -103.11141 27709 ft 368 kts 282°
2026-04-25 23:31 39.03533 -103.14308 27293 ft 367 kts 282°
2026-04-25 23:31 39.04210 -103.17470 26864 ft 366 kts 284°
2026-04-25 23:31 39.05207 -103.20442 26456 ft 370 kts 296°
2026-04-25 23:32 39.06567 -103.23247 26073 ft 369 kts 297°
2026-04-25 23:32 39.07928 -103.26045 25659 ft 368 kts 297°
2026-04-25 23:32 39.09275 -103.28835 25254 ft 367 kts 297°
2026-04-25 23:32 39.10611 -103.31626 24863 ft 365 kts 297°
2026-04-25 23:33 39.11932 -103.34403 24468 ft 363 kts 297°
2026-04-25 23:33 39.13245 -103.37174 24076 ft 361 kts 297°
2026-04-25 23:33 39.14548 -103.39929 23691 ft 359 kts 297°
2026-04-25 23:33 39.15845 -103.42676 23266 ft 358 kts 297°
2026-04-25 23:34 39.17134 -103.45408 22835 ft 355 kts 297°
2026-04-25 23:34 39.18413 -103.48119 22445 ft 352 kts 297°
2026-04-25 23:34 39.19679 -103.50806 22068 ft 349 kts 297°
2026-04-25 23:34 39.20921 -103.53445 21733 ft 347 kts 297°
2026-04-25 23:35 39.22174 -103.56109 21353 ft 347 kts 297°
2026-04-25 23:35 39.23423 -103.58770 20990 ft 347 kts 297°
2026-04-25 23:35 39.24673 -103.61435 20596 ft 348 kts 297°
2026-04-25 23:35 39.25928 -103.64109 20211 ft 349 kts 297°
2026-04-25 23:36 39.27185 -103.66791 19827 ft 349 kts 297°
2026-04-25 23:36 39.28444 -103.69479 19470 ft 349 kts 297°
2026-04-25 23:36 39.29684 -103.72121 19535 ft 342 kts 297°
2026-04-25 23:36 39.30923 -103.74743 19551 ft 340 kts 298°
2026-04-25 23:37 39.32244 -103.77234 19478 ft 332 kts 301°
2026-04-25 23:37 39.33574 -103.79616 19331 ft 323 kts 301°
2026-04-25 23:37 39.34871 -103.81949 18937 ft 319 kts 301°
2026-04-25 23:37 39.36153 -103.84295 18352 ft 320 kts 301°
2026-04-25 23:38 39.37431 -103.86666 17732 ft 321 kts 300°
2026-04-25 23:38 39.38700 -103.89036 17137 ft 320 kts 300°
2026-04-25 23:38 39.39959 -103.91395 16670 ft 316 kts 300°
2026-04-25 23:38 39.41198 -103.93724 16209 ft 313 kts 300°
2026-04-25 23:39 39.42407 -103.95999 15797 ft 308 kts 301°
2026-04-25 23:39 39.43555 -103.98283 15558 ft 295 kts 292°
2026-04-25 23:39 39.44085 -104.00787 15299 ft 287 kts 275°
2026-04-25 23:39 39.44135 -104.03347 15004 ft 284 kts 267°
2026-04-25 23:40 39.44037 -104.05895 14698 ft 283 kts 266°
2026-04-25 23:40 39.43916 -104.08433 14382 ft 282 kts 266°
2026-04-25 23:40 39.43802 -104.10965 14077 ft 281 kts 266°
2026-04-25 23:40 39.43697 -104.13489 13776 ft 281 kts 266°
2026-04-25 23:41 39.43598 -104.16011 13478 ft 280 kts 267°
2026-04-25 23:41 39.43507 -104.18486 13348 ft 272 kts 267°
2026-04-25 23:41 39.43420 -104.20901 13211 ft 265 kts 267°
2026-04-25 23:41 39.43336 -104.23248 13094 ft 258 kts 266°
2026-04-25 23:42 39.43254 -104.25533 12977 ft 250 kts 265°
2026-04-25 23:42 39.43174 -104.27757 12791 ft 246 kts 265°
2026-04-25 23:42 39.43093 -104.29977 12520 ft 247 kts 265°
2026-04-25 23:42 39.43011 -104.32195 12213 ft 247 kts 265°
2026-04-25 23:43 39.42952 -104.34420 11919 ft 249 kts 271°
2026-04-25 23:43 39.43389 -104.36590 11675 ft 251 kts 287°
2026-04-25 23:43 39.44023 -104.38692 11426 ft 250 kts 287°
2026-04-25 23:43 39.44647 -104.40772 11233 ft 246 kts 287°
2026-04-25 23:44 39.45264 -104.42827 11022 ft 245 kts 287°
2026-04-25 23:44 39.45877 -104.44856 10791 ft 247 kts 287°
2026-04-25 23:44 39.46510 -104.46941 10554 ft 250 kts 287°
2026-04-25 23:44 39.47136 -104.49005 10315 ft 251 kts 287°
2026-04-25 23:45 39.47771 -104.51113 10105 ft 252 kts 287°
2026-04-25 23:45 39.48409 -104.53228 9865 ft 253 kts 287°
2026-04-25 23:45 39.49054 -104.55342 9618 ft 253 kts 287°
2026-04-25 23:45 39.49700 -104.57456 9390 ft 251 kts 288°
2026-04-25 23:46 39.50447 -104.59494 9124 ft 254 kts 304°
2026-04-25 23:46 39.51789 -104.60998 9035 ft 263 kts 325°
2026-04-25 23:46 39.53335 -104.62262 9005 ft 259 kts 327°
2026-04-25 23:46 39.54839 -104.63448 8915 ft 247 kts 327°
2026-04-25 23:47 39.56332 -104.64425 8793 ft 237 kts 345°
2026-04-25 23:47 39.57967 -104.64450 8483 ft 234 kts
2026-04-25 23:47 39.59582 -104.64385 8208 ft 231 kts 360°
2026-04-25 23:47 39.60636 -104.64407 8032 ft 226 kts
2026-04-25 23:48 39.62708 -104.64419 8012 ft 224 kts
2026-04-25 23:48 39.64303 -104.64405 7971 ft 230 kts
2026-04-25 23:48 39.65889 -104.64386 7967 ft 225 kts
2026-04-25 23:48 39.67430 -104.64367 7956 ft 215 kts
2026-04-25 23:49 39.68895 -104.64349 7949 ft 206 kts
2026-04-25 23:49 39.70317 -104.64331 7908 ft 208 kts
2026-04-25 23:49 39.71772 -104.64312 7656 ft 213 kts
2026-04-25 23:49 39.73228 -104.64295 7376 ft 204 kts
2026-04-25 23:50 39.74607 -104.64279 7091 ft 192 kts
2026-04-25 23:50 39.75905 -104.64264 6828 ft 180 kts
2026-04-25 23:50 39.77118 -104.64248 6615 ft 169 kts
2026-04-25 23:50 39.78286 -104.64232 6384 ft 168 kts
2026-04-25 23:51 39.79436 -104.64222 6228 ft 162 kts
2026-04-25 23:51 39.80544 -104.64199 5955 ft 158 kts
2026-04-25 23:51 39.81635 -104.64190 5732 ft 155 kts
2026-04-25 23:51 39.82706 -104.64180 5531 ft 154 kts
2026-04-25 23:52 39.83770 -104.64169 5377 ft 146 kts
2026-04-25 23:52 39.84685 -104.64150 5362 ft 113 kts 359°
2026-04-25 23:52 39.85139 -104.64149 5358 ft 84 kts
2026-04-25 23:52 39.85517 -104.64182 5354 ft 41 kts 343°
2026-04-25 23:53 39.85656 -104.64266 5351 ft 7 kts 330°
2026-04-25 23:53 39.85693 -104.64293 5352 ft 1 kts 330°
2026-04-25 23:53 39.85696 -104.64295 5352 ft 0 kts 330°
2026-04-25 23:54 39.85716 -104.64310 5352 ft 7 kts 331°
2026-04-25 23:54 39.85786 -104.64360 5351 ft 15 kts 330°
2026-04-25 23:54 39.85894 -104.64440 5351 ft 19 kts 331°
2026-04-25 23:54 39.86012 -104.64527 5349 ft 19 kts 329°
2026-04-25 23:55 39.86127 -104.64610 5349 ft 19 kts 330°
2026-04-25 23:55 39.86242 -104.64695 5349 ft 20 kts 330°
2026-04-25 23:55 39.86365 -104.64785 5349 ft 20 kts 330°
2026-04-25 23:55 39.86471 -104.64864 5353 ft 12 kts 320°
2026-04-25 23:56 39.86491 -104.64973 5357 ft 16 kts 270°
2026-04-25 23:56 39.86492 -104.65131 5360 ft 20 kts 270°
2026-04-25 23:56 39.86493 -104.65322 5364 ft 23 kts 271°
2026-04-25 23:56 39.86495 -104.65537 5366 ft 23 kts 270°
2026-04-25 23:57 39.86497 -104.65744 5371 ft 23 kts 270°
2026-04-25 23:57 39.86498 -104.65945 5374 ft 22 kts 270°
2026-04-25 23:57 39.86499 -104.66132 5382 ft 19 kts 270°
2026-04-25 23:57 39.86500 -104.66275 5379 ft 10 kts 268°
2026-04-25 23:58 39.86463 -104.66339 5374 ft 9 kts 196°
2026-04-25 23:58 39.86396 -104.66342 5377 ft 11 kts 180°
2026-04-25 23:58 39.86303 -104.66343 5378 ft 15 kts 180°
2026-04-25 23:58 39.86185 -104.66344 5376 ft 18 kts 181°
2026-04-25 23:59 39.86073 -104.66345 5381 ft 11 kts 180°
2026-04-25 23:59 39.86021 -104.66386 5380 ft 9 kts 250°
2026-04-25 23:59 39.86017 -104.66476 5378 ft 12 kts 270°
2026-04-25 23:59 39.86054 -104.66577 5374 ft 11 kts 294°
2026-04-26 00:00 39.86060 -104.66671 5376 ft 12 kts 270°
2026-04-26 00:00 39.86061 -104.66796 5376 ft 15 kts 270°
2026-04-26 00:00 39.86061 -104.66930 5376 ft 15 kts 270°
2026-04-26 00:00 39.86060 -104.67052 5375 ft 10 kts 260°
2026-04-26 00:01 39.86014 -104.67089 5376 ft 6 kts 171°
2026-04-26 00:01 39.85973 -104.67086 5377 ft 6 kts 180°
2026-04-26 00:01 39.85940 -104.67086 5378 ft 2 kts 180°
2026-04-26 00:01 39.85931 -104.67086 5377 ft 0 kts 180°